Location: Dortmund
(51.5019°N, 7.6520°E)
Time: 22:38:32
(UTC+02:00)

ISS - Pass Details

Date: 30 March 2019
Orbit: 408 x 410 km, 51.6° (Epoch: 21 April)

Event Time Altitude Azimuth Distance (km) Brightness Sun altitude
Rises 20:49:33 0° 279° (W) 2,339 1.3 -17.1°
Reaches altitude 10° 20:51:38 10° 278° (W) 1,476 0.1 -17.3°
Maximum altitude 20:54:57 82° 192° (SSW) 418 -3.9 -17.8°
Enters shadow 20:55:26 62° 116° (ESE) 467 -3.9 -17.9°
